Regional Weather Roundup
Issued by NWS

Home | Current Version | Previous Version | Text Only | Print | Product List | Glossary On
Versions: 1 2 3 4 5 6 7 8 9 10 11 12 13 14 15 16 17 18 19 20 21 22 23 24 25 26 27
000
ASUS44 KJAN 300910
RWRMS

MISSISSIPPI HOURLY WEATHER ROUNDUP
NATIONAL WEATHER SERVICE JACKSON MS
400 AM CDT THU MAR 30 2017

NOTE: "FAIR: INDICATES FEW OR NO CLOUDS BELOW 12,000 FEET WITH NO
SIGNIFICANT WEATHER AND/OR OBSTRUCTIONS TO VISIBILITY.

MSZ001>002-007>008-010>013-018>021-025>028-034>036-301000-
NORTHWEST MISSISSIPPI

CITY           SKY/WX    TMP DP  RH WIND       PRES   REMARKS
BATESVILLE     FAIR      68  55  62 S12G22    29.76S
CLEVELAND      CLOUDY    66  62  86 S15G23    29.76F
GREENWOOD      CLOUDY    64  58  80 SE23G31   29.76F
GREENVILLE     CLOUDY    65  59  81 S9        29.75F
OXFORD         LGT RAIN  61  57  88 SE17G33   29.73F
TUNICA         CLOUDY    66  59  77 S14       29.76R
WINONA         LGT RAIN  61  60  96 NW8       29.78F
$$

MSZ003>006-009-014>017-022>024-029>033-037>039-301000-
NORTHEAST MISSISSIPPI

CITY           SKY/WX    TMP DP  RH WIND       PRES   REMARKS
COLUMBUS AFB   CLOUDY    69  63  80 S10       29.86S
CORINTH        FAIR      70  59  68 S16G24    29.80R
GOLDN TRIANGLE CLOUDY   N/A N/A N/A S9        29.83F
STARKVILLE     LGT RAIN  68  63  83 SW7       29.89S
TUPELO         CLOUDY    67  61  81 SW16G25   29.85R
$$

MSZ040-058-301000-
CENTRAL MISSISSIPPI

CITY           SKY/WX    TMP DP  RH WIND       PRES   REMARKS
JACKSON INTL   RAIN      64  60  87 S10       29.89F
JACKSON HAWKNS HVY RAIN  63  59  87 S14       29.87F FOG
MADISON        CLOUDY    61  59  94 S8        29.88F
MERIDIAN KEY   CLOUDY    68  66  93 W6        29.90S
MERIDIAN NAS   CLOUDY    69  61  75 CALM      29.89F
RAYMOND        DRIZZLE   63  61  94 SE13G24   29.81F
VICKSBURG VKS    N/A     64  61  88 SE6       29.78F
$$

MSZ059>079-301000-
SOUTH MISSISSIPPI

CITY           SKY/WX    TMP DP  RH WIND       PRES   REMARKS
COLUMBIA       CLOUDY    70 N/A N/A CALM      29.92R
HATTIESBURG    MOCLDY    68  66  93 S5        29.88F
MCCOMB         HVY RAIN  64  62  93 VRB3      29.90R FOG
NATCHEZ        NOT AVBL
PINE BELT      CLOUDY    68  64  88 CALM      29.90R
$$

MSZ080>082-301000-
COASTAL MISSISSIPPI

CITY           SKY/WX    TMP DP  RH WIND       PRES   REMARKS
BILOXI         CLOUDY    73  70  88 S12       29.88F
PASCAGOULA     PTCLDY    72  66  81 S7        29.90S
GULFPORT       CLOUDY    74  69  85 S15       29.88F
$$

LAZ007>009-015>016-023>026-301000-
NORTHEAST LOUISIANA

CITY           SKY/WX    TMP DP  RH WIND       PRES   REMARKS
BASTROP        CLOUDY    64  64  98 CALM      29.74F
TALLULAH/VBURG CLOUDY    64  61  90 SE12      29.79F
VIDALIA          N/A     64  63  94 S9        29.79F
$$




USA.gov is the U.S. government's official web portal to all federal, state and local government web resources and services.